Regional Weather Roundup
Issued by NWS Northern Indiana

Home | Current Version | Previous Version | Graphics & Text | Print | Product List | Glossary On
Versions: 1 2 3 4 5 6 7 8 9 10 11 12 13 14 15 16 17 18 19 20 21 22 23 24 25 26 27 28 29 30 31 32 33 34 35 36 37 38 39 40 41 42 43 44 45 46 47 48 49 50
000
ASUS43 KIWX 261010
RWRIWX

KIWX WEATHER ROUNDUP
NATIONAL WEATHER SERVICE NORTHERN INDIANA
500 AM EST SUN FEB 26 2017

NOTE: "FAIR" INDICATES FEW OR NO CLOUDS BELOW 12,000 FEET WITH NO
SIGNIFICANT WEATHER AND/OR OBSTRUCTIONS TO VISIBILITY.

* THESE STATIONS ARE NOT UNDER NWS QUALITY CONTROL. THEY ALSO MAY NOT
  REPORT WEATHER SUCH AS PRECIPITATION OR FOG.

INZ001>027-261100-
NORTHERN INDIANA

CITY           SKY/WX    TMP DP  RH WIND       PRES   REMARKS
VALPARAISO     MOCLDY    20  16  84 S5        30.07S WCI  13
MICHIGAN CITY* CLEAR     21  16  79 S5        30.08R WCI  15
LAPORTE*       PTCLDY    20  15  82 SW6       30.08R WCI  12
KNOX*          CLEAR     19   1  45 SW5       30.09R WCI  13
SOUTH BEND     CLEAR     21  15  78 SW7       30.07R WCI  12
GOSHEN         CLEAR     22  15  75 SW7       30.06S WCI  13
MONTICELLO*    CLEAR     21  17  85 S5        30.10S WCI  15
LOGANSPORT*    CLEAR     21  18  86 SW5       30.11R WCI  15
ROCHESTER*     CLEAR     25  19  80 SW3       30.10R
WARSAW*        CLEAR     21  14  73 SW5       30.07R WCI  15
ANGOLA*        CLEAR     25  19  80 W3        30.04S
FORT WAYNE     PTCLDY    23  17  78 W6        30.08R WCI  16
HUNTINGTON*    CLEAR     21  15  76 SW3       30.09R
PERU/GRISSOM   CLEAR     19  16  86 W5        30.09R WCI  12
MARION*        CLEAR     20  17  86 W6        30.11R WCI  12

$$
INZ028>050-261100-
CENTRAL INDIANA

CITY           SKY/WX    TMP DP  RH WIND       PRES   REMARKS
LAFAYETTE      CLEAR     18  17  96 CALM      30.11S
KOKOMO*        CLEAR     17  14  88 SW5       30.11R WCI  10
MUNCIE*        CLEAR     22  16  78 SW3       30.10R
INDIANAPOLIS   CLEAR     21  15  78 SW6       30.11S WCI  13

$$
MIZ043>046-050>051-056>058-064>065-071>073-077>080-261100-
SOUTHWEST LOWER MICHIGAN

CITY           SKY/WX    TMP DP  RH WIND       PRES   REMARKS
BATTLE CREEK   CLOUDY    20  16  84 S7        30.03S WCI  11
BENTON HARBOR  PTCLDY    26  15  63 S5        30.05R WCI  20
COLDWATER*     CLOUDY    23  18  82 SW3       30.04S
HILLSDALE*     CLOUDY    23  19  86 SW5       30.02S WCI  17
HOLLAND        CLEAR     23  15  71 SW7       30.02S WCI  15
GRAND RAPIDS   CLEAR     23  16  74 S8        30.00S WCI  14
KALAMAZOO      PTCLDY    23  14  68 SW5       30.03S WCI  17
STURGIS*       PTCLDY    22  17  82 SW3       30.04S
THREE RIVERS*  FAIR      24  16  73 S3        30.04F

$$
OHZ001>008-015>018-024>025-261100-
NORTHWEST OHIO

CITY           SKY/WX    TMP DP  RH WIND       PRES   REMARKS
WAUSEON*       CLOUDY    25  21  86 W8        30.06S WCI  16
DEFIANCE       CLOUDY    25  17  72 W3        30.08R
FINDLAY        CLOUDY    27  15  61 W8        30.07R WCI  19
TOLEDO EXPRESS CLOUDY    25  20  81 W10       30.07R WCI  15
TOLEDO METCALF CLOUDY    26  19  74 W9        30.08R WCI  17
LIMA           CLOUDY    23  20  88 W6        30.07R WCI  16

$$
AND FOR LAKE MICHIGAN COASTAL AND OPEN LAKE BUOY OBSERVATIONS

STATION/POSITION TEMP    WIND        PRES    VSBY  WAVE
                 AIR SEA DIR/SP/G                  HT/PER
                 (F)     (DEG/KT/KT) (MB)    (MI)  (FT/S)
CALUMET HARBOR    25     180/  4/  6 1017.2F
MICHIGAN CITY     24     170/  9/ 11   N/A
BURNS HARBOR      23     180/  8/ 11 1018.6S
SAINT JOSEPH      30     230/ 13/ 14 1018.6

$$
&&



USA.gov is the U.S. government's official web portal to all federal, state and local government web resources and services.